Lake Clear, NY

8:40 AM EST on February 12, 2016 (GMT -0500)
Adirondack Regional

Weather History for KSLK - March, 2015

Change the Weather History Date:

Friday, March 27, 2015

  Actual Average Record
Temperature  
Mean Temperature 27 °F 29 °F  
Max Temperature 35 °F 41 °F 69 °F (1993)
Min Temperature 19 °F 18 °F -16 °F (2014)
Degree Days  
Heating Degree Days 38 36  
Month to date heating degree days 1224 1119  
Since 1 July heating degree days 8007 7824  
Cooling Degree Days 0 0  
Month to date cooling degree days 0 0  
Year to date cooling degree days 0 0  
Moisture  
Dew Point 26 °F    
Average Humidity 88    
Maximum Humidity 100    
Minimum Humidity 75    
Precipitation  
Precipitation 0.02 in 0.09 in 1.40 in (1955)
Month to date precipitation 0.77 1.92  
Year to date precipitation 1.64 5.66  
Sea Level Pressure  
Sea Level Pressure 29.73 in    
Wind  
Wind Speed 5 mph (WNW)    
Max Wind Speed 10 mph    
Max Gust Speed 14 mph    
Visibility 6 miles    
Events Snow    
T = Trace of Precipitation, MM = Missing Value Source: NWS Daily Summary

Daily Weather History Graph

Daily Weather History Graph

Search for Another Location

Airport or City:

Trip Planner

Search our weather history database for the weather conditions in past years. The results will help you decide how hot, cold, wet, or windy it might be!

Date:

Astronomy

Mar. 27, 2015 Rise Set
Actual Time 6:47 AM EDT 7:17 PM EDT
Civil Twilight 6:18 AM EDT 7:46 PM EDT
Nautical Twilight 5:44 AM EDT 8:21 PM EDT
Astronomical Twilight 5:08 AM EDT 8:57 PM EDT
Moon 12:10 PM EDT (3/27) 2:16 AM EDT (3/27)
Length of Visible Light 13h 28m
Length of Day
12h 30m
First Quarter, 53% of the Moon is Illuminated
Mar 27
First Quarter
Apr 4
Full
Apr 11
Last Quarter
Apr 18
New
Apr 25
First Quarter

Hourly Weather History & Observations

Time (EDT) Temp. Windchill Dew Point Humidity Pressure Visibility Wind Dir Wind Speed Gust Speed Precip Events Conditions
12:01 AM 32.0 °F 27.5 °F 30.9 °F 96% 29.69 in 10.0 mi SW 4.6 mph - N/A   Overcast
12:16 AM 32.0 °F 27.5 °F 30.9 °F 96% 29.68 in 10.0 mi SW 4.6 mph - N/A   Overcast
12:23 AM 32.0 °F 27.5 °F 30.9 °F 96% 29.68 in 10.0 mi WSW 4.6 mph - N/A   Overcast
12:51 AM 32.0 °F 27.5 °F 30.9 °F 96% 29.71 in 10.0 mi SW 4.6 mph - N/A   Overcast
1:00 AM 32.0 °F - 30.9 °F 96% 29.66 in 10.0 mi Calm Calm - N/A   Overcast
1:51 AM 32.0 °F 28.7 °F 30.9 °F 96% 29.70 in 8.0 mi WSW 3.5 mph - N/A   Overcast
1:59 AM 32.0 °F - 30.9 °F 96% 29.65 in 7.0 mi Calm Calm - N/A   Overcast
2:31 AM 32.0 °F 27.5 °F 30.9 °F 96% 29.68 in 10.0 mi SW 4.6 mph - N/A   Overcast
2:51 AM 32.0 °F 27.5 °F 30.9 °F 96% 29.72 in 10.0 mi WSW 4.6 mph - N/A   Overcast
3:51 AM 32.0 °F 28.7 °F 30.9 °F 96% 29.70 in 9.0 mi West 3.5 mph - N/A   Overcast
4:51 AM 30.9 °F 26.2 °F 30.9 °F 100% 29.70 in 5.0 mi SW 4.6 mph - N/A   Overcast
5:13 AM 30.9 °F 25.2 °F 30.0 °F 96% 29.66 in 6.0 mi SW 5.8 mph - N/A   Overcast
5:51 AM 32.0 °F 25.6 °F 30.9 °F 96% 29.73 in 5.0 mi SW 6.9 mph - 0.00 in   Overcast
6:51 AM 30.9 °F 24.3 °F 30.0 °F 96% 29.73 in 5.0 mi WSW 6.9 mph - N/A   Overcast
7:28 AM 30.9 °F 26.2 °F 30.9 °F 100% 29.69 in 2.5 mi WSW 4.6 mph - 0.00 in Snow Light Snow
7:51 AM 30.9 °F 25.2 °F 30.0 °F 96% 29.73 in 2.5 mi WSW 5.8 mph - 0.00 in Snow Light Snow
8:45 AM 30.2 °F 24.3 °F 30.2 °F 100% 29.68 in 4.0 mi WSW 5.8 mph - 0.00 in Snow Light Snow
8:51 AM 30.9 °F 25.2 °F 30.0 °F 96% 29.73 in 5.0 mi WSW 5.8 mph - 0.00 in Snow Light Snow
8:58 AM 30.9 °F 24.3 °F 30.0 °F 96% 29.68 in 8.0 mi WSW 6.9 mph - 0.00 in Snow Light Snow
9:07 AM 30.9 °F 23.5 °F 30.0 °F 96% 29.67 in 9.0 mi WSW 8.1 mph - 0.00 in Snow Light Snow
9:51 AM 32.0 °F 27.5 °F 30.0 °F 92% 29.74 in 7.0 mi WSW 4.6 mph - 0.00 in Snow Light Snow
10:06 AM 32.0 °F 27.5 °F 28.9 °F 88% 29.69 in 10.0 mi West 4.6 mph - 0.00 in Snow Light Snow
10:32 AM 33.1 °F 30.0 °F 30.0 °F 89% 29.68 in 10.0 mi Variable 3.5 mph - 0.00 in   Overcast
10:38 AM 33.1 °F 30.0 °F 28.9 °F 85% 29.69 in 9.0 mi Variable 3.5 mph - 0.00 in   Overcast
10:51 AM 33.1 °F 28.7 °F 28.9 °F 85% 29.74 in 6.0 mi West 4.6 mph - 0.00 in Snow Light Snow
11:51 AM 33.1 °F 28.7 °F 28.9 °F 85% 29.73 in 10.0 mi Variable 4.6 mph - 0.01 in   Overcast
12:01 PM 34.0 °F 26.6 °F 30.0 °F 85% 29.68 in 2.0 mi NNW 9.2 mph - 0.00 in Snow Light Snow
12:03 PM 33.1 °F 26.1 °F 28.9 °F 85% 29.68 in 0.8 mi NNW 8.1 mph - 0.00 in Snow Light Snow
12:20 PM 33.1 °F 28.7 °F 28.9 °F 85% 29.68 in 1.8 mi Variable 4.6 mph - 0.01 in Snow Light Snow
12:24 PM 33.1 °F 27.7 °F 28.9 °F 85% 29.68 in 3.0 mi Variable 5.8 mph - 0.01 in Snow Light Snow
12:32 PM 33.1 °F - 28.9 °F 85% 29.67 in 9.0 mi Calm Calm - 0.01 in   Overcast
12:51 PM 34.0 °F 28.0 °F 27.0 °F 75% 29.72 in 10.0 mi WNW 6.9 mph - 0.01 in   Overcast
1:09 PM 35.1 °F 30.1 °F 28.0 °F 76% 29.67 in 10.0 mi Variable 5.8 mph - N/A   Overcast
1:16 PM 35.1 °F 29.3 °F 28.9 °F 78% 29.67 in 10.0 mi Variable 6.9 mph - N/A   Overcast
1:51 PM 34.0 °F 28.0 °F 27.0 °F 75% 29.73 in 10.0 mi Variable 6.9 mph - N/A   Overcast
2:23 PM 33.1 °F 30.0 °F 26.1 °F 75% 29.69 in 10.0 mi Variable 3.5 mph - N/A   Overcast
2:36 PM 33.1 °F 27.7 °F 26.1 °F 75% 29.69 in 10.0 mi Variable 5.8 mph - N/A   Overcast
2:51 PM 33.1 °F 28.7 °F 27.0 °F 78% 29.73 in 10.0 mi Variable 4.6 mph - N/A   Overcast
3:38 PM 33.1 °F 26.9 °F 26.1 °F 75% 29.67 in 10.0 mi NNW 6.9 mph - 0.00 in   Overcast
3:51 PM 32.0 °F 24.8 °F 26.1 °F 79% 29.73 in 10.0 mi North 8.1 mph - 0.00 in   Overcast
4:25 PM 32.0 °F 26.4 °F 26.1 °F 79% 29.68 in 10.0 mi NNW 5.8 mph - N/A   Overcast
4:39 PM 30.0 °F 23.2 °F 26.1 °F 85% 29.69 in 9.0 mi North 6.9 mph - N/A   Overcast
4:46 PM 30.2 °F 24.3 °F 26.6 °F 86% 29.69 in 6.0 mi Variable 5.8 mph - 0.00 in Snow Light Snow
4:51 PM 30.0 °F 23.2 °F 26.1 °F 85% 29.75 in 4.0 mi North 6.9 mph - 0.00 in Snow Light Snow
5:04 PM 30.0 °F 23.2 °F 26.1 °F 85% 29.70 in 2.0 mi NNW 6.9 mph - 0.00 in Snow Light Snow
5:28 PM 28.9 °F 22.8 °F 25.0 °F 85% 29.71 in 2.0 mi Variable 5.8 mph - 0.00 in Snow Light Snow
5:33 PM 28.9 °F 21.1 °F 26.1 °F 89% 29.71 in 1.5 mi NW 8.1 mph - 0.00 in Snow Light Snow
5:51 PM 28.0 °F 21.7 °F 25.0 °F 88% 29.77 in 1.5 mi NW 5.8 mph - 0.00 in Snow Light Snow
5:56 PM 28.0 °F 20.8 °F 25.0 °F 88% 29.71 in 2.0 mi NW 6.9 mph - 0.00 in Snow Light Snow
6:09 PM 28.0 °F 21.7 °F 24.1 °F 85% 29.72 in 4.0 mi Variable 5.8 mph - 0.00 in Snow Light Snow
6:51 PM 27.0 °F 23.0 °F 24.1 °F 89% 29.80 in 3.0 mi Variable 3.5 mph - 0.00 in Snow Light Snow
7:02 PM 27.0 °F 21.6 °F 23.0 °F 85% 29.74 in 2.5 mi NNW 4.6 mph - 0.00 in Snow Light Snow
7:19 PM 26.1 °F 20.5 °F 23.0 °F 88% 29.75 in 3.0 mi NNW 4.6 mph - 0.00 in Snow Light Snow
7:51 PM 25.0 °F 18.1 °F 21.9 °F 88% 29.82 in 4.0 mi WNW 5.8 mph - 0.00 in Snow Light Snow
7:58 PM 25.0 °F 19.3 °F 21.9 °F 88% 29.77 in 3.0 mi Variable 4.6 mph - 0.00 in Snow Light Snow
8:09 PM 24.1 °F 17.0 °F 21.0 °F 88% 29.77 in 2.5 mi NW 5.8 mph - 0.00 in Snow Light Snow
8:19 PM 24.1 °F 17.0 °F 21.0 °F 88% 29.78 in 1.8 mi WNW 5.8 mph - 0.00 in Snow Light Snow
8:35 PM 23.0 °F 14.7 °F 19.9 °F 88% 29.78 in 2.0 mi NNW 6.9 mph - 0.00 in Snow Light Snow
8:51 PM 21.9 °F 14.5 °F 19.0 °F 89% 29.85 in 2.5 mi Variable 5.8 mph - 0.00 in Snow Light Snow
8:58 PM 21.9 °F 15.7 °F 19.9 °F 92% 29.78 in 4.0 mi Variable 4.6 mph - 0.00 in Snow Light Snow
9:08 PM 21.9 °F 14.5 °F 19.0 °F 89% 29.79 in 5.0 mi NW 5.8 mph - 0.00 in Snow Light Snow
9:34 PM 21.0 °F 16.2 °F 18.0 °F 88% 29.79 in 6.0 mi Variable 3.5 mph - 0.00 in Snow Light Snow
9:51 PM 21.0 °F - 18.0 °F 88% 29.86 in 6.0 mi North - - 0.00 in Snow Light Snow
10:24 PM 21.0 °F 14.6 °F 18.0 °F 88% 29.80 in 10.0 mi Variable 4.6 mph - 0.00 in   Overcast
10:51 PM 19.9 °F 13.4 °F 17.1 °F 89% 29.87 in 10.0 mi Variable 4.6 mph - 0.00 in   Overcast
11:05 PM 19.9 °F 13.4 °F 17.1 °F 89% 29.81 in 10.0 mi NW 4.6 mph - N/A   Unknown
11:35 PM 19.9 °F 14.9 °F 17.1 °F 89% 29.82 in 10.0 mi NW 3.5 mph - N/A   Overcast
11:51 PM 19.0 °F 11.1 °F 16.0 °F 88% 29.88 in 10.0 mi NNW 5.8 mph - N/A   Overcast